Location: Dallas(GA)
(33.9240°N, 84.8410°W)
Time: 21:46:56
(UTC-04:00)

N. Korean satellite - Pass Details

Date: 06 October 2020
Orbit: 453 x 505 km, 97.2° (Epoch: 25 October)

Event Time Altitude Azimuth Distance (km) Brightness Sun altitude
Rises 19:37:09 0° 215° (SW) 2,590 10.9 -5.2°
Reaches altitude 10° 19:41:14 10° 261° (W) 1,714 11.2 -6.0°
Maximum altitude 19:41:41 10° 268° (W) 1,704 11.2 -6.1°
Drops below altitude 10° 19:42:08 10° 275° (W) 1,715 11.1 -6.2°
Sets 19:46:15 0° 320° (NW) 2,602 10.9 -7.1°
